Weather Roundup
Issued by NWS Springfield, MO

Home | Current Version | Previous Version | Text Only | Print | Product List | Glossary On
Versions: 1 2 3 4 5 6 7 8 9 10 11 12 13 14 15 16 17 18 19 20 21 22 23 24 25 26 27 28 29 30 31 32 33 34 35 36 37 38 39 40 41 42 43 44 45 46 47 48 49 50
000
NZUS99 KSGF 241207
HRRSGF

HOURLY WEATHER
NATIONAL WEATHER SERVICE SPRINGFIELD MO
700 AM CDT THU APR 24 2014

......SGF CWA......

CITY           SKY/WX    TMP DP  RH WIND       PRES   REMARKS
SPRINGFIELD    MOCLDY    62  42  47 S16       29.73S
6HR MIN TEMP:  61; 6HR MAX TEMP:  64;

JOPLIN         TSTM      64  52  64 S18       29.68R
6HR MIN TEMP:  62; 6HR MAX TEMP:  68; 6HR PCP:  0.03;

WEST PLAINS    MOCLDY    55  37  50 SE9       29.86S
6HR MIN TEMP:  54; 6HR MAX TEMP:  58;

ROLLA          CLOUDY    57  34  41 SE18G26   29.77F
6HR MIN TEMP:  56; 6HR MAX TEMP:  59;

OSAGE BEACH    CLOUDY    59  36  41 SE8       29.77F
BRANSON        CLOUDY    59  39  47 SE20      29.76F

......SURROUNDING SGF CWA......

CITY           SKY/WX    TMP DP  RH WIND       PRES   REMARKS
CHANUTE        CLOUDY    68  55  63 S18G31    29.62F
PARSONS        CLOUDY    69  56  62 S14G24    29.64F
COFFEYVILLE    CLOUDY    68  57  68 S14G23    29.63F
EMPORIA        LGT RAIN  60  58  92 N10       29.65R FOG
GROVE OK       CLOUDY    68  52  56 S3        29.71R
ROGERS AR      LGT RAIN  64  50  60 SE8       29.71S
SILOAM SPRINGS CLOUDY    64  50  59 SW10      29.74R
HARRISON AR    MOCLDY    63  41  44 SE25G35   29.73F
NEAR YELLVILLE MOCLDY    55  37  50 SE5       29.83F

......KANSAS AND MISSOURI......

CITY           SKY/WX    TMP DP  RH WIND       PRES   REMARKS
KANSAS CTY INT LGT RAIN  63  51  65 SE9       29.66R
DOWNTOWN KC    LGT RAIN  66  50  56 SE7       29.66R
COLUMBIA       CLOUDY    57  37  47 SE14      29.75F
SEDALIA        CLOUDY    63  41  44 S14       29.70S
ST JOSEPH      LGT RAIN  64  52  64 S13       29.62S
ST LOUIS       MOCLDY    55  34  45 SE16      29.88S
SPIRIT OF STL  MOCLDY    53  34  48 E6        29.86S
KIRKSVILLE     CLOUDY    53  38  56 SE8       29.77R
WICHITA        CLOUDY    60  56  86 N12       29.64R
TOPEKA         HVY RAIN  59  56  89 NW17G32   29.66R VSB 1
OLATHE         LGT RAIN  61  49  64 SE8       29.66R

......TENNESSEE......

CITY           SKY/WX    TMP DP  RH WIND       PRES   REMARKS
MEMPHIS        MOCLDY    58  38  47 SE7       29.92R
NASHVILLE      PTSUNNY   45  40  82 CALM      29.99R

......ARKANSAS.......

CITY           SKY/WX    TMP DP  RH WIND       PRES   REMARKS
FAYETTEVILLE   CLOUDY    63  52  67 SW17G25   29.71R
FT SMITH       CLOUDY    58  54  86 NE7       29.75R
LITTLE ROCK    MOCLDY    56  50  80 CALM      29.90R

......OKLAHOMA.......

CITY           SKY/WX    TMP DP  RH WIND       PRES   REMARKS
TULSA          MOCLDY    69  62  78 S20G28    29.63S
PONCA CITY     CLOUDY    68  60  75 W7        29.62R
MCALESTER      MOCLDY    68  59  73 S12G22    29.72F THUNDER
OKLAHOMA CITY  MOCLDY    66  61  82 S21G28    29.63F

......IOWA............

CITY           SKY/WX    TMP DP  RH WIND       PRES   REMARKS
DES MOINES     CLOUDY    51  42  71 SE17      29.64F
QUAD CITIES    MOCLDY    46  38  73 E10       29.86F

......ILLINOIS........

CITY           SKY/WX    TMP DP  RH WIND       PRES   REMARKS
QUINCY         CLOUDY    52  34  50 SE18G30   29.79F
CHICAGO        CLOUDY    42  33  70 E8        30.02F



USA.gov is the U.S. government's official web portal to all federal, state and local government web resources and services.